Time,TemperatureF,DewpointF,PressureIn,WindDirection,WindDirectionDegrees,WindSpeedMPH,WindSpeedGustMPH,Humidity,HourlyPrecipIn,Conditions,Clouds,dailyrainin,SoftwareType,DateUTC
2013-01-04 00:02:00,23.0,21.6,30.32,North,-999,-999.0,-999.0,94,0.00,,,0.00,meteohub,2013-01-04 06:02:00,
2013-01-04 00:07:00,22.8,21.6,30.33,North,-999,-999.0,-999.0,95,0.00,,,0.00,meteohub,2013-01-04 06:07:00,
2013-01-04 00:12:00,22.8,21.6,30.33,North,-999,-999.0,-999.0,95,0.00,,,0.00,meteohub,2013-01-04 06:12:00,
2013-01-04 00:17:00,22.6,21.4,30.32,North,-999,-999.0,-999.0,95,0.00,,,0.00,meteohub,2013-01-04 06:17:00,
2013-01-04 00:22:00,22.5,21.2,30.32,North,-999,-999.0,-999.0,95,0.00,,,0.00,meteohub,2013-01-04 06:22:00,
2013-01-04 00:27:00,22.3,21.4,30.32,North,-999,-999.0,-999.0,96,0.00,,,0.00,meteohub,2013-01-04 06:27:00,
2013-01-04 00:32:00,22.3,21.0,30.32,North,-999,-999.0,-999.0,95,0.00,,,0.00,meteohub,2013-01-04 06:32:00,
2013-01-04 00:37:00,22.3,21.6,30.32,North,-999,-999.0,-999.0,97,0.00,,,0.00,meteohub,2013-01-04 06:37:00,
2013-01-04 00:42:00,22.3,21.6,30.32,North,-999,-999.0,-999.0,97,0.00,,,0.00,meteohub,2013-01-04 06:42:00,
2013-01-04 00:47:00,22.3,21.7,30.32,North,-999,-999.0,-999.0,98,0.00,,,0.00,meteohub,2013-01-04 06:47:00,
2013-01-04 00:52:00,22.3,21.7,30.32,North,-999,-999.0,-999.0,98,0.00,,,0.00,meteohub,2013-01-04 06:52:00,
2013-01-04 00:57:00,22.1,21.6,30.31,North,-999,-999.0,-999.0,98,0.00,,,0.00,meteohub,2013-01-04 06:57:00,
2013-01-04 01:02:00,21.9,21.4,30.31,North,-999,-999.0,-999.0,98,0.00,,,0.00,meteohub,2013-01-04 07:02:00,
2013-01-04 01:07:00,21.7,21.2,30.31,North,-999,-999.0,-999.0,98,0.00,,,0.00,meteohub,2013-01-04 07:07:00,
2013-01-04 01:12:00,21.6,21.0,30.31,North,-999,-999.0,-999.0,98,0.00,,,0.00,meteohub,2013-01-04 07:12:00,
2013-01-04 01:17:00,21.4,21.2,30.31,North,-999,-999.0,-999.0,99,0.00,,,0.00,meteohub,2013-01-04 07:17:00,
2013-01-04 01:22:00,21.2,20.7,30.31,North,-999,-999.0,-999.0,98,0.00,,,0.00,meteohub,2013-01-04 07:22:00,
2013-01-04 01:27:00,21.0,20.8,30.31,North,-999,-999.0,-999.0,99,0.00,,,0.00,meteohub,2013-01-04 07:27:00,
2013-01-04 01:32:00,21.0,20.8,30.32,North,-999,-999.0,-999.0,99,0.00,,,0.00,meteohub,2013-01-04 07:32:00,
2013-01-04 01:37:00,20.8,20.7,30.31,North,-999,-999.0,-999.0,99,0.00,,,0.00,meteohub,2013-01-04 07:37:00,
2013-01-04 01:42:00,20.7,20.5,30.31,North,-999,-999.0,-999.0,99,0.00,,,0.00,meteohub,2013-01-04 07:42:00,
2013-01-04 01:47:00,20.7,20.5,30.31,North,-999,-999.0,-999.0,99,0.00,,,0.00,meteohub,2013-01-04 07:47:00,
2013-01-04 01:52:00,20.5,20.3,30.32,North,-999,-999.0,-999.0,99,0.00,,,0.00,meteohub,2013-01-04 07:52:00,
2013-01-04 01:57:00,20.3,20.1,30.32,North,-999,-999.0,-999.0,99,0.00,,,0.00,meteohub,2013-01-04 07:57:00,
2013-01-04 02:02:00,20.1,19.9,30.32,North,-999,-999.0,-999.0,99,0.00,,,0.00,meteohub,2013-01-04 08:02:00,
2013-01-04 02:08:00,19.9,19.8,30.32,North,-999,-999.0,-999.0,99,0.00,,,0.00,meteohub,2013-01-04 08:08:00,
2013-01-04 02:14:00,19.9,19.8,30.32,North,-999,-999.0,-999.0,99,0.00,,,0.00,meteohub,2013-01-04 08:14:00,
2013-01-04 02:20:00,19.9,19.8,30.32,North,-999,-999.0,-999.0,99,0.00,,,0.00,meteohub,2013-01-04 08:20:00,
2013-01-04 02:26:00,20.1,19.9,30.32,North,-999,-999.0,-999.0,99,0.00,,,0.00,meteohub,2013-01-04 08:26:00,
2013-01-04 02:32:00,20.1,19.9,30.33,North,-999,-999.0,-999.0,99,0.00,,,0.00,meteohub,2013-01-04 08:32:00,
2013-01-04 02:37:00,20.3,20.1,30.33,North,-999,-999.0,-999.0,99,0.00,,,0.00,meteohub,2013-01-04 08:37:00,
2013-01-04 02:44:00,20.3,20.1,30.33,North,-999,-999.0,-999.0,99,0.00,,,0.00,meteohub,2013-01-04 08:44:00,
2013-01-04 02:50:00,20.1,19.9,30.33,North,-999,-999.0,-999.0,99,0.00,,,0.00,meteohub,2013-01-04 08:50:00,
2013-01-04 02:56:00,19.9,19.8,30.33,North,-999,-999.0,-999.0,99,0.00,,,0.00,meteohub,2013-01-04 08:56:00,
2013-01-04 03:02:00,19.9,19.8,30.33,North,-999,-999.0,-999.0,99,0.00,,,0.00,meteohub,2013-01-04 09:02:00,
2013-01-04 03:07:00,19.9,19.8,30.32,North,-999,-999.0,-999.0,99,0.00,,,0.00,meteohub,2013-01-04 09:07:00,
2013-01-04 03:12:00,19.6,19.4,30.32,North,-999,-999.0,-999.0,99,0.00,,,0.00,meteohub,2013-01-04 09:12:00,
2013-01-04 03:17:00,19.6,19.4,30.32,North,-999,-999.0,-999.0,99,0.00,,,0.00,meteohub,2013-01-04 09:17:00,
2013-01-04 03:22:00,19.4,19.2,30.32,North,-999,-999.0,-999.0,99,0.00,,,0.00,meteohub,2013-01-04 09:22:00,
2013-01-04 03:27:00,19.4,19.2,30.31,North,-999,-999.0,-999.0,99,0.00,,,0.00,meteohub,2013-01-04 09:27:00,
2013-01-04 03:32:00,19.4,19.2,30.31,North,-999,-999.0,-999.0,99,0.00,,,0.00,meteohub,2013-01-04 09:32:00,
2013-01-04 03:37:00,19.4,19.2,30.31,North,-999,-999.0,-999.0,99,0.00,,,0.00,meteohub,2013-01-04 09:37:00,
2013-01-04 03:42:00,19.4,19.2,30.31,North,-999,-999.0,-999.0,99,0.00,,,0.00,meteohub,2013-01-04 09:42:00,
2013-01-04 03:47:00,19.4,19.2,30.31,North,-999,-999.0,-999.0,99,0.00,,,0.00,meteohub,2013-01-04 09:47:00,
2013-01-04 03:52:00,19.4,19.2,30.31,North,-999,-999.0,-999.0,99,0.00,,,0.00,meteohub,2013-01-04 09:52:00,
2013-01-04 03:57:00,19.4,19.2,30.31,North,-999,-999.0,-999.0,99,0.00,,,0.00,meteohub,2013-01-04 09:57:00,
2013-01-04 04:02:00,19.6,19.4,30.30,North,-999,-999.0,-999.0,99,0.00,,,0.00,meteohub,2013-01-04 10:02:00,
2013-01-04 04:08:00,19.6,19.4,30.30,North,-999,-999.0,-999.0,99,0.00,,,0.00,meteohub,2013-01-04 10:08:00,
2013-01-04 04:14:00,19.4,19.2,30.30,North,-999,-999.0,-999.0,99,0.00,,,0.00,meteohub,2013-01-04 10:14:00,
2013-01-04 04:21:00,19.4,19.2,30.30,North,-999,-999.0,-999.0,99,0.00,,,0.00,meteohub,2013-01-04 10:21:00,
2013-01-04 04:27:00,19.4,19.2,30.30,North,-999,-999.0,-999.0,99,0.00,,,0.00,meteohub,2013-01-04 10:27:00,
2013-01-04 04:32:00,19.4,19.2,30.30,North,-999,-999.0,-999.0,99,0.00,,,0.00,meteohub,2013-01-04 10:32:00,
2013-01-04 04:37:00,19.4,19.2,30.30,North,-999,-999.0,-999.0,99,0.00,,,0.00,meteohub,2013-01-04 10:37:00,
2013-01-04 04:42:00,19.2,19.0,30.29,North,-999,-999.0,-999.0,99,0.00,,,0.00,meteohub,2013-01-04 10:42:00,
2013-01-04 04:47:00,19.4,19.2,30.30,North,-999,-999.0,-999.0,99,0.00,,,0.00,meteohub,2013-01-04 10:47:00,
2013-01-04 04:52:00,19.4,19.2,30.29,North,-999,-999.0,-999.0,99,0.00,,,0.00,meteohub,2013-01-04 10:52:00,
2013-01-04 04:57:00,19.4,19.2,30.29,North,-999,-999.0,-999.0,99,0.00,,,0.00,meteohub,2013-01-04 10:57:00,
2013-01-04 05:02:00,19.4,19.2,30.29,North,-999,-999.0,-999.0,99,0.00,,,0.00,meteohub,2013-01-04 11:02:00,
2013-01-04 05:09:00,19.4,19.2,30.29,North,-999,-999.0,-999.0,99,0.00,,,0.00,meteohub,2013-01-04 11:09:00,
2013-01-04 05:15:00,19.4,19.2,30.29,North,-999,-999.0,-999.0,99,0.00,,,0.00,meteohub,2013-01-04 11:15:00,
2013-01-04 05:21:00,19.2,19.0,30.29,North,-999,-999.0,-999.0,99,0.00,,,0.00,meteohub,2013-01-04 11:21:00,
2013-01-04 05:27:00,19.2,19.0,30.29,North,-999,-999.0,-999.0,99,0.00,,,0.00,meteohub,2013-01-04 11:27:00,
2013-01-04 05:32:00,19.2,19.0,30.29,North,-999,-999.0,-999.0,99,0.00,,,0.00,meteohub,2013-01-04 11:32:00,
2013-01-04 05:37:00,19.0,18.9,30.29,North,-999,-999.0,-999.0,99,0.00,,,0.00,meteohub,2013-01-04 11:37:00,
2013-01-04 05:42:00,19.0,18.9,30.30,North,-999,-999.0,-999.0,99,0.00,,,0.00,meteohub,2013-01-04 11:42:00,
2013-01-04 05:47:00,19.0,18.9,30.29,North,-999,-999.0,-999.0,99,0.00,,,0.00,meteohub,2013-01-04 11:47:00,
2013-01-04 05:52:00,19.2,19.0,30.29,North,-999,-999.0,-999.0,99,0.00,,,0.00,meteohub,2013-01-04 11:52:00,
2013-01-04 05:57:00,19.2,19.0,30.29,North,-999,-999.0,-999.0,99,0.00,,,0.00,meteohub,2013-01-04 11:57:00,
2013-01-04 06:02:00,19.2,19.0,30.28,North,-999,-999.0,-999.0,99,0.00,,,0.00,meteohub,2013-01-04 12:02:00,
2013-01-04 06:07:00,19.2,19.0,30.28,North,-999,-999.0,-999.0,99,0.00,,,0.00,meteohub,2013-01-04 12:07:00,
2013-01-04 06:12:00,19.2,19.0,30.29,North,-999,-999.0,-999.0,99,0.00,,,0.00,meteohub,2013-01-04 12:12:00,
2013-01-04 06:17:00,19.4,19.2,30.29,North,-999,-999.0,-999.0,99,0.00,,,0.00,meteohub,2013-01-04 12:17:00,
2013-01-04 06:22:00,19.4,19.2,30.29,North,-999,-999.0,-999.0,99,0.00,,,0.00,meteohub,2013-01-04 12:22:00,
2013-01-04 06:27:00,19.4,19.2,30.29,North,-999,-999.0,-999.0,99,0.00,,,0.00,meteohub,2013-01-04 12:27:00,
2013-01-04 06:32:00,19.4,19.2,30.29,North,-999,-999.0,-999.0,99,0.00,,,0.00,meteohub,2013-01-04 12:32:00,
2013-01-04 06:37:00,19.6,19.4,30.29,North,-999,-999.0,-999.0,99,0.00,,,0.00,meteohub,2013-01-04 12:37:00,
2013-01-04 06:42:00,19.6,19.4,30.29,North,-999,-999.0,-999.0,99,0.00,,,0.00,meteohub,2013-01-04 12:42:00,
2013-01-04 06:47:00,19.6,19.4,30.29,North,-999,-999.0,-999.0,99,0.00,,,0.00,meteohub,2013-01-04 12:47:00,
2013-01-04 06:52:00,19.6,19.4,30.30,North,-999,-999.0,-999.0,99,0.00,,,0.00,meteohub,2013-01-04 12:52:00,
2013-01-04 06:57:00,19.6,19.4,30.29,North,-999,-999.0,-999.0,99,0.00,,,0.00,meteohub,2013-01-04 12:57:00,
2013-01-04 07:02:00,19.4,19.2,30.29,North,-999,-999.0,-999.0,99,0.00,,,0.00,meteohub,2013-01-04 13:02:00,
2013-01-04 07:07:00,19.4,19.2,30.30,North,-999,-999.0,-999.0,99,0.00,,,0.00,meteohub,2013-01-04 13:07:00,
2013-01-04 07:12:00,19.6,19.4,30.29,North,-999,-999.0,-999.0,99,0.00,,,0.00,meteohub,2013-01-04 13:12:00,
2013-01-04 07:17:00,19.6,19.4,30.30,North,-999,-999.0,-999.0,99,0.00,,,0.00,meteohub,2013-01-04 13:17:00,
2013-01-04 07:22:00,19.6,19.4,30.29,North,-999,-999.0,-999.0,99,0.00,,,0.00,meteohub,2013-01-04 13:22:00,
2013-01-04 07:28:00,19.6,19.4,30.30,North,-999,-999.0,-999.0,99,0.00,,,0.00,meteohub,2013-01-04 13:28:00,
2013-01-04 07:34:00,19.6,19.4,30.29,North,-999,-999.0,-999.0,99,0.00,,,0.00,meteohub,2013-01-04 13:34:00,
2013-01-04 07:40:00,19.8,19.6,30.30,North,-999,-999.0,-999.0,99,0.00,,,0.00,meteohub,2013-01-04 13:40:00,
2013-01-04 07:46:00,19.8,19.6,30.30,North,-999,-999.0,-999.0,99,0.00,,,0.00,meteohub,2013-01-04 13:46:00,
2013-01-04 07:52:00,20.1,19.9,30.30,North,-999,-999.0,-999.0,99,0.00,,,0.00,meteohub,2013-01-04 13:52:00,
2013-01-04 07:57:00,20.7,20.5,30.29,North,-999,-999.0,-999.0,99,0.00,,,0.00,meteohub,2013-01-04 13:57:00,
2013-01-04 08:02:00,21.2,21.0,30.29,North,-999,-999.0,-999.0,99,0.00,,,0.00,meteohub,2013-01-04 14:02:00,
2013-01-04 08:07:00,21.4,20.8,30.29,North,-999,-999.0,-999.0,98,0.00,,,0.00,meteohub,2013-01-04 14:07:00,
2013-01-04 08:12:00,21.9,21.4,30.29,North,-999,-999.0,-999.0,98,0.00,,,0.00,meteohub,2013-01-04 14:12:00,
2013-01-04 08:17:00,22.1,21.4,30.28,North,-999,-999.0,-999.0,97,0.00,,,0.00,meteohub,2013-01-04 14:17:00,
2013-01-04 08:22:00,22.6,21.9,30.29,North,-999,-999.0,-999.0,97,0.00,,,0.00,meteohub,2013-01-04 14:22:00,
2013-01-04 08:27:00,23.5,22.6,30.28,North,-999,-999.0,-999.0,96,0.00,,,0.00,meteohub,2013-01-04 14:27:00,
2013-01-04 08:32:00,23.5,22.6,30.29,North,-999,-999.0,-999.0,96,0.00,,,0.00,meteohub,2013-01-04 14:32:00,
2013-01-04 08:37:00,25.2,23.4,30.29,North,-999,-999.0,-999.0,93,0.00,,,0.00,meteohub,2013-01-04 14:37:00,
2013-01-04 08:43:00,25.9,23.5,30.30,North,-999,-999.0,-999.0,91,0.00,,,0.00,meteohub,2013-01-04 14:43:00,
2013-01-04 08:49:00,26.4,23.4,30.30,North,-999,-999.0,-999.0,88,0.00,,,0.00,meteohub,2013-01-04 14:49:00,
2013-01-04 08:55:00,26.8,23.4,30.30,North,-999,-999.0,-999.0,87,0.00,,,0.00,meteohub,2013-01-04 14:55:00,
2013-01-04 09:01:00,27.3,23.4,30.30,North,-999,-999.0,-999.0,85,0.00,,,0.00,meteohub,2013-01-04 15:01:00,
2013-01-04 09:07:00,28.0,23.9,30.30,North,-999,-999.0,-999.0,84,0.00,,,0.00,meteohub,2013-01-04 15:07:00,
2013-01-04 09:12:00,28.6,24.1,30.30,North,-999,-999.0,-999.0,83,0.00,,,0.00,meteohub,2013-01-04 15:12:00,
2013-01-04 09:17:00,29.1,24.3,30.30,North,-999,-999.0,-999.0,82,0.00,,,0.00,meteohub,2013-01-04 15:17:00,
2013-01-04 09:22:00,29.3,24.3,30.31,North,-999,-999.0,-999.0,81,0.00,,,0.00,meteohub,2013-01-04 15:22:00,
2013-01-04 09:27:00,30.0,24.6,30.30,North,-999,-999.0,-999.0,80,0.00,,,0.00,meteohub,2013-01-04 15:27:00,
2013-01-04 09:32:00,30.0,24.6,30.31,North,-999,-999.0,-999.0,80,0.00,,,0.00,meteohub,2013-01-04 15:32:00,
2013-01-04 09:37:00,31.1,24.8,30.30,North,-999,-999.0,-999.0,77,0.00,,,0.00,meteohub,2013-01-04 15:37:00,
2013-01-04 09:42:00,31.6,25.0,30.30,North,-999,-999.0,-999.0,76,0.00,,,0.00,meteohub,2013-01-04 15:42:00,
2013-01-04 09:50:00,32.7,25.0,30.30,North,-999,-999.0,-999.0,73,0.00,,,0.00,meteohub,2013-01-04 15:50:00,
2013-01-04 09:56:00,33.6,25.2,30.30,North,-999,-999.0,-999.0,71,0.00,,,0.00,meteohub,2013-01-04 15:56:00,
2013-01-04 10:02:00,33.8,24.8,30.30,North,-999,-999.0,-999.0,69,0.00,,,0.00,meteohub,2013-01-04 16:02:00,
2013-01-04 10:07:00,34.3,25.2,30.30,North,-999,-999.0,-999.0,69,0.00,,,0.00,meteohub,2013-01-04 16:07:00,
2013-01-04 10:12:00,34.7,24.8,30.29,North,-999,-999.0,-999.0,67,0.00,,,0.00,meteohub,2013-01-04 16:12:00,
2013-01-04 10:17:00,35.1,24.8,30.30,North,-999,-999.0,-999.0,66,0.00,,,0.00,meteohub,2013-01-04 16:17:00,
2013-01-04 10:22:00,35.4,25.2,30.30,North,-999,-999.0,-999.0,66,0.00,,,0.00,meteohub,2013-01-04 16:22:00,
2013-01-04 10:27:00,36.3,25.3,30.30,North,-999,-999.0,-999.0,64,0.00,,,0.00,meteohub,2013-01-04 16:27:00,
2013-01-04 10:32:00,36.3,25.0,30.30,North,-999,-999.0,-999.0,63,0.00,,,0.00,meteohub,2013-01-04 16:32:00,
2013-01-04 10:37:00,37.8,25.5,30.30,North,-999,-999.0,-999.0,61,0.00,,,0.00,meteohub,2013-01-04 16:37:00,
2013-01-04 10:42:00,38.3,25.2,30.30,North,-999,-999.0,-999.0,59,0.00,,,0.00,meteohub,2013-01-04 16:42:00,
2013-01-04 10:47:00,38.5,25.0,30.29,North,-999,-999.0,-999.0,58,0.00,,,0.00,meteohub,2013-01-04 16:47:00,
2013-01-04 10:52:00,38.3,24.8,30.30,North,-999,-999.0,-999.0,58,0.00,,,0.00,meteohub,2013-01-04 16:52:00,
2013-01-04 10:57:00,38.7,25.2,30.29,North,-999,-999.0,-999.0,58,0.00,,,0.00,meteohub,2013-01-04 16:57:00,
2013-01-04 11:02:00,39.4,25.0,30.29,North,-999,-999.0,-999.0,56,0.00,,,0.00,meteohub,2013-01-04 17:02:00,
2013-01-04 11:07:00,39.2,25.2,30.29,North,-999,-999.0,-999.0,57,0.00,,,0.00,meteohub,2013-01-04 17:07:00,
2013-01-04 11:12:00,40.3,25.3,30.29,North,-999,-999.0,-999.0,55,0.00,,,0.00,meteohub,2013-01-04 17:12:00,
2013-01-04 11:17:00,40.3,25.0,30.28,North,-999,-999.0,-999.0,54,0.00,,,0.00,meteohub,2013-01-04 17:17:00,
2013-01-04 11:22:00,40.1,24.8,30.29,North,-999,-999.0,-999.0,54,0.00,,,0.00,meteohub,2013-01-04 17:22:00,
2013-01-04 11:27:00,40.5,24.3,30.29,North,-999,-999.0,-999.0,52,0.00,,,0.00,meteohub,2013-01-04 17:27:00,
2013-01-04 11:32:00,40.3,24.4,30.29,North,-999,-999.0,-999.0,53,0.00,,,0.00,meteohub,2013-01-04 17:32:00,
2013-01-04 11:37:00,40.1,23.9,30.28,North,-999,-999.0,-999.0,52,0.00,,,0.00,meteohub,2013-01-04 17:37:00,
2013-01-04 11:42:00,39.7,24.1,30.28,North,-999,-999.0,-999.0,53,0.00,,,0.00,meteohub,2013-01-04 17:42:00,
2013-01-04 11:47:00,39.2,24.4,30.27,North,-999,-999.0,-999.0,55,0.00,,,0.00,meteohub,2013-01-04 17:47:00,
2013-01-04 11:52:00,39.2,23.9,30.27,North,-999,-999.0,-999.0,54,0.00,,,0.00,meteohub,2013-01-04 17:52:00,
2013-01-04 11:57:00,39.9,25.5,30.27,North,-999,-999.0,-999.0,56,0.00,,,0.00,meteohub,2013-01-04 17:57:00,
2013-01-04 12:02:00,40.6,25.3,30.27,North,-999,-999.0,-999.0,54,0.00,,,0.00,meteohub,2013-01-04 18:02:00,
2013-01-04 12:07:00,39.7,25.0,30.27,North,-999,-999.0,-999.0,55,0.00,,,0.00,meteohub,2013-01-04 18:07:00,
2013-01-04 12:12:00,39.9,24.6,30.27,North,-999,-999.0,-999.0,54,0.00,,,0.00,meteohub,2013-01-04 18:12:00,
2013-01-04 12:17:00,39.2,25.2,30.26,North,-999,-999.0,-999.0,57,0.00,,,0.00,meteohub,2013-01-04 18:17:00,
2013-01-04 12:22:00,39.4,25.0,30.27,North,-999,-999.0,-999.0,56,0.00,,,0.00,meteohub,2013-01-04 18:22:00,
2013-01-04 12:27:00,39.4,25.0,30.27,North,-999,-999.0,-999.0,56,0.00,,,0.00,meteohub,2013-01-04 18:27:00,
2013-01-04 12:32:00,39.2,25.2,30.27,North,-999,-999.0,-999.0,57,0.00,,,0.00,meteohub,2013-01-04 18:32:00,
2013-01-04 12:37:00,40.3,25.9,30.26,North,-999,-999.0,-999.0,56,0.00,,,0.00,meteohub,2013-01-04 18:37:00,
2013-01-04 12:42:00,40.8,25.5,30.26,North,-999,-999.0,-999.0,54,0.00,,,0.00,meteohub,2013-01-04 18:42:00,
2013-01-04 12:47:00,41.2,26.2,30.25,North,-999,-999.0,-999.0,55,0.00,,,0.00,meteohub,2013-01-04 18:47:00,
2013-01-04 12:52:00,41.5,26.1,30.25,North,-999,-999.0,-999.0,54,0.00,,,0.00,meteohub,2013-01-04 18:52:00,
2013-01-04 12:57:00,41.9,26.1,30.25,North,-999,-999.0,-999.0,53,0.00,,,0.00,meteohub,2013-01-04 18:57:00,
2013-01-04 13:02:00,41.5,26.1,30.25,North,-999,-999.0,-999.0,54,0.00,,,0.00,meteohub,2013-01-04 19:02:00,
2013-01-04 13:07:00,40.5,26.1,30.25,North,-999,-999.0,-999.0,56,0.00,,,0.00,meteohub,2013-01-04 19:07:00,
2013-01-04 13:12:00,39.0,25.9,30.24,North,-999,-999.0,-999.0,59,0.00,,,0.00,meteohub,2013-01-04 19:12:00,
2013-01-04 13:17:00,38.7,26.4,30.24,North,-999,-999.0,-999.0,61,0.00,,,0.00,meteohub,2013-01-04 19:17:00,
2013-01-04 13:22:00,38.8,26.6,30.24,North,-999,-999.0,-999.0,61,0.00,,,0.00,meteohub,2013-01-04 19:22:00,
2013-01-04 13:27:00,39.4,26.2,30.23,North,-999,-999.0,-999.0,59,0.00,,,0.00,meteohub,2013-01-04 19:27:00,
2013-01-04 13:32:00,40.1,27.0,30.23,North,-999,-999.0,-999.0,59,0.00,,,0.00,meteohub,2013-01-04 19:32:00,
2013-01-04 13:37:00,40.6,26.6,30.23,North,-999,-999.0,-999.0,57,0.00,,,0.00,meteohub,2013-01-04 19:37:00,
2013-01-04 13:42:00,40.5,26.8,30.23,North,-999,-999.0,-999.0,58,0.00,,,0.00,meteohub,2013-01-04 19:42:00,
2013-01-04 13:47:00,41.7,26.8,30.23,North,-999,-999.0,-999.0,55,0.00,,,0.00,meteohub,2013-01-04 19:47:00,
2013-01-04 13:52:00,42.8,27.3,30.23,North,-999,-999.0,-999.0,54,0.00,,,0.00,meteohub,2013-01-04 19:52:00,
2013-01-04 13:57:00,43.5,27.1,30.22,North,-999,-999.0,-999.0,52,0.00,,,0.00,meteohub,2013-01-04 19:57:00,
2013-01-04 14:03:00,43.7,26.8,30.22,North,-999,-999.0,-999.0,51,0.00,,,0.00,meteohub,2013-01-04 20:03:00,
2013-01-04 14:09:00,43.7,26.8,30.22,North,-999,-999.0,-999.0,51,0.00,,,0.00,meteohub,2013-01-04 20:09:00,
2013-01-04 14:15:00,44.4,27.0,30.22,North,-999,-999.0,-999.0,50,0.00,,,0.00,meteohub,2013-01-04 20:15:00,
2013-01-04 14:21:00,45.3,27.3,30.22,North,-999,-999.0,-999.0,49,0.00,,,0.00,meteohub,2013-01-04 20:21:00,
2013-01-04 14:27:00,45.3,27.3,30.22,North,-999,-999.0,-999.0,49,0.00,,,0.00,meteohub,2013-01-04 20:27:00,
2013-01-04 14:32:00,45.1,27.1,30.22,North,-999,-999.0,-999.0,49,0.00,,,0.00,meteohub,2013-01-04 20:32:00,
2013-01-04 14:37:00,45.3,27.3,30.22,North,-999,-999.0,-999.0,49,0.00,,,0.00,meteohub,2013-01-04 20:37:00,
2013-01-04 14:42:00,45.9,27.3,30.22,North,-999,-999.0,-999.0,48,0.00,,,0.00,meteohub,2013-01-04 20:42:00,
2013-01-04 14:47:00,45.9,27.3,30.22,North,-999,-999.0,-999.0,48,0.00,,,0.00,meteohub,2013-01-04 20:47:00,
2013-01-04 14:52:00,45.9,27.3,30.22,North,-999,-999.0,-999.0,48,0.00,,,0.00,meteohub,2013-01-04 20:52:00,
2013-01-04 14:57:00,46.0,27.0,30.22,North,-999,-999.0,-999.0,47,0.00,,,0.00,meteohub,2013-01-04 20:57:00,
2013-01-04 15:02:00,45.1,26.6,30.22,North,-999,-999.0,-999.0,48,0.00,,,0.00,meteohub,2013-01-04 21:02:00,
2013-01-04 15:07:00,45.1,27.1,30.21,North,-999,-999.0,-999.0,49,0.00,,,0.00,meteohub,2013-01-04 21:07:00,
2013-01-04 15:12:00,45.1,27.1,30.21,North,-999,-999.0,-999.0,49,0.00,,,0.00,meteohub,2013-01-04 21:12:00,
2013-01-04 15:17:00,45.0,27.0,30.21,North,-999,-999.0,-999.0,49,0.00,,,0.00,meteohub,2013-01-04 21:17:00,
2013-01-04 15:22:00,44.8,26.8,30.21,North,-999,-999.0,-999.0,49,0.00,,,0.00,meteohub,2013-01-04 21:22:00,
2013-01-04 15:27:00,42.4,26.6,30.20,North,-999,-999.0,-999.0,53,0.00,,,0.00,meteohub,2013-01-04 21:27:00,
2013-01-04 15:32:00,42.3,26.8,30.21,North,-999,-999.0,-999.0,54,0.00,,,0.00,meteohub,2013-01-04 21:32:00,
2013-01-04 15:37:00,40.5,27.3,30.21,North,-999,-999.0,-999.0,59,0.00,,,0.00,meteohub,2013-01-04 21:37:00,
2013-01-04 15:42:00,40.3,27.5,30.20,North,-999,-999.0,-999.0,60,0.00,,,0.00,meteohub,2013-01-04 21:42:00,
2013-01-04 15:47:00,40.3,27.5,30.21,North,-999,-999.0,-999.0,60,0.00,,,0.00,meteohub,2013-01-04 21:47:00,
2013-01-04 15:52:00,40.1,27.7,30.21,North,-999,-999.0,-999.0,61,0.00,,,0.00,meteohub,2013-01-04 21:52:00,
2013-01-04 15:57:00,39.9,27.5,30.21,North,-999,-999.0,-999.0,61,0.00,,,0.00,meteohub,2013-01-04 21:57:00,
2013-01-04 16:04:00,40.1,28.0,30.21,North,-999,-999.0,-999.0,62,0.00,,,0.00,meteohub,2013-01-04 22:04:00,
2013-01-04 16:10:00,39.9,28.0,30.20,North,-999,-999.0,-999.0,62,0.00,,,0.00,meteohub,2013-01-04 22:10:00,
2013-01-04 16:16:00,39.9,27.5,30.21,North,-999,-999.0,-999.0,61,0.00,,,0.00,meteohub,2013-01-04 22:16:00,
2013-01-04 16:22:00,39.7,27.9,30.20,North,-999,-999.0,-999.0,62,0.00,,,0.00,meteohub,2013-01-04 22:22:00,
2013-01-04 16:27:00,39.7,27.9,30.21,North,-999,-999.0,-999.0,62,0.00,,,0.00,meteohub,2013-01-04 22:27:00,
2013-01-04 16:32:00,39.6,27.7,30.20,North,-999,-999.0,-999.0,62,0.00,,,0.00,meteohub,2013-01-04 22:32:00,
2013-01-04 16:37:00,39.0,27.9,30.21,North,-999,-999.0,-999.0,64,0.00,,,0.00,meteohub,2013-01-04 22:37:00,
2013-01-04 16:42:00,38.7,27.9,30.20,North,-999,-999.0,-999.0,65,0.00,,,0.00,meteohub,2013-01-04 22:42:00,
2013-01-04 16:47:00,38.7,27.9,30.21,North,-999,-999.0,-999.0,65,0.00,,,0.00,meteohub,2013-01-04 22:47:00,
2013-01-04 16:52:00,38.3,27.5,30.20,North,-999,-999.0,-999.0,65,0.00,,,0.00,meteohub,2013-01-04 22:52:00,
2013-01-04 16:57:00,37.9,27.7,30.21,North,-999,-999.0,-999.0,66,0.00,,,0.00,meteohub,2013-01-04 22:57:00,
2013-01-04 17:02:00,37.8,27.5,30.20,North,-999,-999.0,-999.0,66,0.00,,,0.00,meteohub,2013-01-04 23:02:00,
2013-01-04 17:07:00,37.4,27.5,30.20,North,-999,-999.0,-999.0,67,0.00,,,0.00,meteohub,2013-01-04 23:07:00,
2013-01-04 17:12:00,37.2,27.7,30.20,North,-999,-999.0,-999.0,68,0.00,,,0.00,meteohub,2013-01-04 23:12:00,
2013-01-04 17:17:00,36.9,27.7,30.20,North,-999,-999.0,-999.0,69,0.00,,,0.00,meteohub,2013-01-04 23:17:00,
2013-01-04 17:22:00,36.5,27.7,30.20,North,-999,-999.0,-999.0,70,0.00,,,0.00,meteohub,2013-01-04 23:22:00,
2013-01-04 17:27:00,36.1,27.7,30.20,North,-999,-999.0,-999.0,71,0.00,,,0.00,meteohub,2013-01-04 23:27:00,
2013-01-04 17:32:00,36.0,27.5,30.20,North,-999,-999.0,-999.0,71,0.00,,,0.00,meteohub,2013-01-04 23:32:00,
2013-01-04 17:37:00,35.6,27.5,30.20,North,-999,-999.0,-999.0,72,0.00,,,0.00,meteohub,2013-01-04 23:37:00,
2013-01-04 17:42:00,35.4,27.7,30.19,North,-999,-999.0,-999.0,73,0.00,,,0.00,meteohub,2013-01-04 23:42:00,
2013-01-04 17:47:00,35.1,27.3,30.19,North,-999,-999.0,-999.0,73,0.00,,,0.00,meteohub,2013-01-04 23:47:00,
2013-01-04 17:52:00,34.5,27.1,30.20,North,-999,-999.0,-999.0,74,0.00,,,0.00,meteohub,2013-01-04 23:52:00,
2013-01-04 17:57:00,34.5,27.5,30.20,North,-999,-999.0,-999.0,75,0.00,,,0.00,meteohub,2013-01-04 23:57:00,
2013-01-04 18:02:00,34.7,27.9,30.20,North,-999,-999.0,-999.0,76,0.00,,,0.00,meteohub,2013-01-05 00:02:00,
2013-01-04 18:07:00,34.7,27.9,30.20,North,-999,-999.0,-999.0,76,0.00,,,0.00,meteohub,2013-01-05 00:07:00,
2013-01-04 18:12:00,34.5,27.7,30.20,North,-999,-999.0,-999.0,76,0.00,,,0.00,meteohub,2013-01-05 00:12:00,
2013-01-04 18:17:00,34.5,27.7,30.20,North,-999,-999.0,-999.0,76,0.00,,,0.00,meteohub,2013-01-05 00:17:00,
2013-01-04 18:22:00,34.5,27.7,30.19,North,-999,-999.0,-999.0,76,0.00,,,0.00,meteohub,2013-01-05 00:22:00,
2013-01-04 18:27:00,34.5,27.7,30.19,North,-999,-999.0,-999.0,76,0.00,,,0.00,meteohub,2013-01-05 00:27:00,
2013-01-04 18:32:00,34.5,27.7,30.19,North,-999,-999.0,-999.0,76,0.00,,,0.00,meteohub,2013-01-05 00:32:00,
2013-01-04 18:37:00,34.7,27.9,30.19,North,-999,-999.0,-999.0,76,0.00,,,0.00,meteohub,2013-01-05 00:37:00,
2013-01-04 18:42:00,34.5,27.7,30.19,North,-999,-999.0,-999.0,76,0.00,,,0.00,meteohub,2013-01-05 00:42:00,
2013-01-04 18:47:00,34.5,27.7,30.19,North,-999,-999.0,-999.0,76,0.00,,,0.00,meteohub,2013-01-05 00:47:00,
2013-01-04 18:52:00,34.3,27.5,30.19,North,-999,-999.0,-999.0,76,0.00,,,0.00,meteohub,2013-01-05 00:52:00,
2013-01-04 18:57:00,34.3,27.5,30.19,North,-999,-999.0,-999.0,76,0.00,,,0.00,meteohub,2013-01-05 00:57:00,
2013-01-04 19:02:00,34.2,27.3,30.19,North,-999,-999.0,-999.0,76,0.00,,,0.00,meteohub,2013-01-05 01:02:00,
2013-01-04 19:07:00,34.0,27.5,30.20,North,-999,-999.0,-999.0,77,0.00,,,0.00,meteohub,2013-01-05 01:07:00,
2013-01-04 19:12:00,34.0,27.1,30.20,North,-999,-999.0,-999.0,76,0.00,,,0.00,meteohub,2013-01-05 01:12:00,
2013-01-04 19:17:00,33.8,27.3,30.19,North,-999,-999.0,-999.0,77,0.00,,,0.00,meteohub,2013-01-05 01:17:00,
2013-01-04 19:22:00,33.8,27.3,30.20,North,-999,-999.0,-999.0,77,0.00,,,0.00,meteohub,2013-01-05 01:22:00,
2013-01-04 19:27:00,34.0,27.5,30.19,North,-999,-999.0,-999.0,77,0.00,,,0.00,meteohub,2013-01-05 01:27:00,
2013-01-04 19:32:00,33.8,27.3,30.19,North,-999,-999.0,-999.0,77,0.00,,,0.00,meteohub,2013-01-05 01:32:00,
2013-01-04 19:39:00,33.8,27.0,30.20,North,-999,-999.0,-999.0,76,0.00,,,0.00,meteohub,2013-01-05 01:39:00,
2013-01-04 19:45:00,33.6,26.8,30.20,North,-999,-999.0,-999.0,76,0.00,,,0.00,meteohub,2013-01-05 01:45:00,
2013-01-04 19:51:00,33.6,26.8,30.19,North,-999,-999.0,-999.0,76,0.00,,,0.00,meteohub,2013-01-05 01:51:00,
2013-01-04 19:57:00,33.3,26.8,30.19,North,-999,-999.0,-999.0,77,0.00,,,0.00,meteohub,2013-01-05 01:57:00,
2013-01-04 20:02:00,33.1,26.6,30.19,North,-999,-999.0,-999.0,77,0.00,,,0.00,meteohub,2013-01-05 02:02:00,
2013-01-04 20:07:00,32.9,26.4,30.19,North,-999,-999.0,-999.0,77,0.00,,,0.00,meteohub,2013-01-05 02:07:00,
2013-01-04 20:12:00,32.5,26.1,30.19,North,-999,-999.0,-999.0,77,0.00,,,0.00,meteohub,2013-01-05 02:12:00,
2013-01-04 20:17:00,32.2,25.7,30.19,North,-999,-999.0,-999.0,77,0.00,,,0.00,meteohub,2013-01-05 02:17:00,
2013-01-04 20:22:00,32.0,25.9,30.19,North,-999,-999.0,-999.0,78,0.00,,,0.00,meteohub,2013-01-05 02:22:00,
2013-01-04 20:27:00,32.0,25.9,30.19,North,-999,-999.0,-999.0,78,0.00,,,0.00,meteohub,2013-01-05 02:27:00,
2013-01-04 20:32:00,31.8,25.7,30.19,North,-999,-999.0,-999.0,78,0.00,,,0.00,meteohub,2013-01-05 02:32:00,
2013-01-04 20:37:00,32.0,26.2,30.19,North,-999,-999.0,-999.0,79,0.00,,,0.00,meteohub,2013-01-05 02:37:00,
2013-01-04 20:42:00,32.0,26.2,30.19,North,-999,-999.0,-999.0,79,0.00,,,0.00,meteohub,2013-01-05 02:42:00,
2013-01-04 20:47:00,32.0,26.2,30.19,North,-999,-999.0,-999.0,79,0.00,,,0.00,meteohub,2013-01-05 02:47:00,
2013-01-04 20:52:00,31.8,25.7,30.18,North,-999,-999.0,-999.0,78,0.00,,,0.00,meteohub,2013-01-05 02:52:00,
2013-01-04 20:57:00,31.6,25.9,30.18,North,-999,-999.0,-999.0,79,0.00,,,0.00,meteohub,2013-01-05 02:57:00,
2013-01-04 21:02:00,31.5,25.7,30.18,North,-999,-999.0,-999.0,79,0.00,,,0.00,meteohub,2013-01-05 03:02:00,
2013-01-04 21:07:00,31.5,25.7,30.18,North,-999,-999.0,-999.0,79,0.00,,,0.00,meteohub,2013-01-05 03:07:00,
2013-01-04 21:12:00,31.5,25.7,30.18,North,-999,-999.0,-999.0,79,0.00,,,0.00,meteohub,2013-01-05 03:12:00,
2013-01-04 21:17:00,31.3,25.5,30.19,North,-999,-999.0,-999.0,79,0.00,,,0.00,meteohub,2013-01-05 03:17:00,
2013-01-04 21:22:00,31.1,25.3,30.19,North,-999,-999.0,-999.0,79,0.00,,,0.00,meteohub,2013-01-05 03:22:00,
2013-01-04 21:27:00,31.3,25.5,30.19,North,-999,-999.0,-999.0,79,0.00,,,0.00,meteohub,2013-01-05 03:27:00,
2013-01-04 21:32:00,31.3,25.5,30.18,North,-999,-999.0,-999.0,79,0.00,,,0.00,meteohub,2013-01-05 03:32:00,
2013-01-04 21:37:00,31.1,25.3,30.18,North,-999,-999.0,-999.0,79,0.00,,,0.00,meteohub,2013-01-05 03:37:00,
2013-01-04 21:42:00,30.9,24.8,30.18,North,-999,-999.0,-999.0,78,0.00,,,0.00,meteohub,2013-01-05 03:42:00,
2013-01-04 21:47:00,30.6,24.8,30.18,North,-999,-999.0,-999.0,79,0.00,,,0.00,meteohub,2013-01-05 03:47:00,
2013-01-04 21:52:00,30.2,24.4,30.18,North,-999,-999.0,-999.0,79,0.00,,,0.00,meteohub,2013-01-05 03:52:00,
2013-01-04 21:57:00,30.0,24.3,30.18,North,-999,-999.0,-999.0,79,0.00,,,0.00,meteohub,2013-01-05 03:57:00,
2013-01-04 22:02:00,29.8,24.1,30.17,North,-999,-999.0,-999.0,79,0.00,,,0.00,meteohub,2013-01-05 04:02:00,
2013-01-04 22:09:00,29.8,24.4,30.17,North,-999,-999.0,-999.0,80,0.00,,,0.00,meteohub,2013-01-05 04:09:00,
2013-01-04 22:15:00,29.8,24.4,30.18,North,-999,-999.0,-999.0,80,0.00,,,0.00,meteohub,2013-01-05 04:15:00,
2013-01-04 22:21:00,29.8,24.4,30.18,North,-999,-999.0,-999.0,80,0.00,,,0.00,meteohub,2013-01-05 04:21:00,
2013-01-04 22:27:00,29.8,24.4,30.18,North,-999,-999.0,-999.0,80,0.00,,,0.00,meteohub,2013-01-05 04:27:00,
2013-01-04 22:32:00,29.7,24.3,30.18,North,-999,-999.0,-999.0,80,0.00,,,0.00,meteohub,2013-01-05 04:32:00,
2013-01-04 22:37:00,29.7,24.3,30.19,North,-999,-999.0,-999.0,80,0.00,,,0.00,meteohub,2013-01-05 04:37:00,
2013-01-04 22:42:00,29.5,24.1,30.18,North,-999,-999.0,-999.0,80,0.00,,,0.00,meteohub,2013-01-05 04:42:00,
2013-01-04 22:47:00,29.5,24.1,30.18,North,-999,-999.0,-999.0,80,0.00,,,0.00,meteohub,2013-01-05 04:47:00,
2013-01-04 22:52:00,29.5,24.1,30.19,North,-999,-999.0,-999.0,80,0.00,,,0.00,meteohub,2013-01-05 04:52:00,
2013-01-04 22:57:00,29.3,23.9,30.18,North,-999,-999.0,-999.0,80,0.00,,,0.00,meteohub,2013-01-05 04:57:00,
2013-01-04 23:01:00,29.3,23.9,30.19,North,-999,-999.0,-999.0,80,0.00,,,0.00,meteohub,2013-01-05 05:01:00,
2013-01-04 23:02:00,29.3,23.9,30.18,North,-999,-999.0,-999.0,80,0.00,,,0.00,meteohub,2013-01-05 05:02:00,
2013-01-04 23:04:00,29.3,23.9,30.19,North,-999,-999.0,-999.0,80,0.00,,,0.00,meteohub,2013-01-05 05:04:00,
2013-01-04 23:10:00,29.1,23.7,30.19,North,-999,-999.0,-999.0,80,0.00,,,0.00,meteohub,2013-01-05 05:10:00,
2013-01-04 23:12:00,29.1,23.7,30.19,North,-999,-999.0,-999.0,80,0.00,,,0.00,meteohub,2013-01-05 05:12:00,
2013-01-04 23:17:00,28.9,23.5,30.18,North,-999,-999.0,-999.0,80,0.00,,,0.00,meteohub,2013-01-05 05:17:00,
2013-01-04 23:22:00,28.8,23.4,30.19,North,-999,-999.0,-999.0,80,0.00,,,0.00,meteohub,2013-01-05 05:22:00,
2013-01-04 23:27:00,28.8,23.7,30.18,North,-999,-999.0,-999.0,81,0.00,,,0.00,meteohub,2013-01-05 05:27:00,
2013-01-04 23:32:00,28.8,23.7,30.18,North,-999,-999.0,-999.0,81,0.00,,,0.00,meteohub,2013-01-05 05:32:00,
2013-01-04 23:37:00,28.6,23.5,30.18,North,-999,-999.0,-999.0,81,0.00,,,0.00,meteohub,2013-01-05 05:37:00,
2013-01-04 23:42:00,28.8,23.7,30.18,North,-999,-999.0,-999.0,81,0.00,,,0.00,meteohub,2013-01-05 05:42:00,
2013-01-04 23:47:00,28.8,23.7,30.18,North,-999,-999.0,-999.0,81,0.00,,,0.00,meteohub,2013-01-05 05:47:00,
2013-01-04 23:52:00,28.6,23.2,30.17,North,-999,-999.0,-999.0,80,0.00,,,0.00,meteohub,2013-01-05 05:52:00,
2013-01-04 23:57:00,28.4,23.0,30.17,North,-999,-999.0,-999.0,80,0.00,,,0.00,meteohub,2013-01-05 05:57:00,